Location: Hopville
(44.8032°N, 123.1329°W)
Time: 04:44:10
(UTC+00:00)

Cosmos 1655 Rocket - Pass Details

Date: 24 January 2021
Orbit: 971 x 1006 km, 83.0° (Epoch: 26 February)

Event Time Altitude Azimuth Distance (km) Brightness Sun altitude
Rises 14:47:39 0° 352° (N) 3,682 6.8 -9.4°
Reaches altitude 10° 14:50:11 10° 355° (N) 2,734 6.1 -9.0°
Maximum altitude 14:56:27 77° 81° (E) 1,011 4.3 -7.9°
Drops below altitude 10° 15:02:44 10° 168° (SSE) 2,738 6.8 -6.9°
Sets 15:05:15 0° 169° (S) 3,688 7.5 -6.4°
